Location: Ferrier
(52.3667°N, 115.0667°W)
Time: 06:24:07
(UTC+00:00)

N. Korean satellite - Visible Passes

Search period start: 28 November 2021 00:00
Search period end: 08 December 2021 00:00
Orbit: 447 x 495 km, 97.3° (Epoch: 27 November)

Date Brightness Start Highest point End Pass type
(mag) Time Alt. Az. Time Alt. Az. Time Alt. Az.
28 Nov 9.7 01:07:04 10° SW 01:09:20 16° W 01:11:36 10° NW visible
28 Nov 8.6 12:25:01 10° NE 12:27:57 26° E 12:30:51 10° SSE visible
28 Nov 7.4 13:58:12 10° N 14:01:08 27° WNW 14:04:01 10° SW visible
29 Nov 8.7 00:37:29 10° SSW 00:40:41 30° W 00:43:51 10° NNW visible
29 Nov 9.7 11:57:28 10° ENE 11:59:15 13° E 12:01:01 10° ESE visible
29 Nov 6.4 13:29:26 10° N 13:32:48 54° WNW 13:36:06 10° SSW visible
30 Nov 7.1 00:08:34 10° S 00:12:07 63° WSW 00:15:37 10° NNW visible
30 Nov 6.6 13:00:55 10° NNE 13:04:20 69° ESE 13:07:42 10° S visible
30 Nov 8.3 14:35:32 10° NNW 14:37:03 13° WNW 14:38:35 10° W visible
01 Dec 9.9 01:15:28 10° WSW 01:17:12 13° W 01:18:57 10° WNW visible
01 Dec 8.2 12:32:39 10° NNE 12:35:46 31° E 12:38:49 10° SSE visible
01 Dec 7.6 14:06:07 10° NNW 14:08:51 22° WNW 14:11:32 10° WSW visible
02 Dec 9.1 00:45:31 10° SSW 00:48:29 25° W 00:51:27 10° NW visible
02 Dec 9.4 12:04:52 10° NE 12:07:04 16° E 12:09:15 10° SE visible
02 Dec 6.7 13:37:14 10° N 13:40:31 43° WNW 13:43:43 10° SW visible
03 Dec 7.6 00:16:25 10° S 00:19:53 50° W 00:23:18 10° NNW visible
03 Dec 6.3 13:08:38 10° NNE 13:12:03 86° ESE 13:15:26 10° SSW visible
03 Dec 8.4 14:43:54 10° NW 14:44:40 11° WNW 14:45:27 10° WNW visible
04 Dec 10.1 01:24:07 10° WSW 01:25:01 11° W 01:25:53 10° WNW visible
04 Dec 7.8 12:40:16 10° NNE 12:43:29 38° E 12:46:40 10° SSE visible
04 Dec 7.8 14:13:59 10° NNW 14:16:28 19° WNW 14:18:55 10° WSW visible
05 Dec 9.4 00:53:31 10° SW 00:56:14 21° W 00:58:56 10° NW visible
05 Dec 9.1 12:12:16 10° NE 12:14:48 19° E 12:17:19 10° SE visible
05 Dec 6.9 13:44:59 10° N 13:48:08 36° WNW 13:51:15 10° SW visible
06 Dec 8.0 00:24:13 10° S 00:27:34 41° W 00:30:53 10° NNW visible
06 Dec 6.2 13:16:17 10° N 13:19:41 77° WNW 13:23:04 10° SSW visible
07 Dec 7.4 12:47:49 10° NNE 12:51:07 47° E 12:54:25 10° S visible
07 Dec 8.0 14:21:49 10° NNW 14:24:01 16° WNW 14:26:11 10° WSW visible
